Regional Weather Roundup
Issued by NWS

Home | Current Version | Previous Version | Graphics & Text | Print | Product List | Glossary On
Versions: 1 2 3 4 5 6 7 8 9 10 11 12 13 14 15 16 17 18 19 20 21 22 23 24 25 26 27 28 29 30 31 32 33 34 35 36 37 38 39 40 41 42 43 44 45 46 47 48 49 50
000
ASUS43 KMKX 030021
RWRWI

WISCONSIN REGIONAL WEATHER ROUNDUP
NATIONAL WEATHER SERVICE MILWAUKEE/SULLIVAN WI
700 PM CDT TUE SEP 02 2014

NOTE: "FAIR" INDICATES FEW OR NO CLOUDS BELOW 12,000 FEET WITH NO
SIGNIFICANT WEATHER AND/OR OBSTRUCTIONS TO VISIBILITY.

WIZ001-002-006>008-014>016-023>028-030100-
NORTHWEST WISCONSIN

CITY           SKY/WX    TMP DP  RH WIND       PRES   REMARKS
SUPERIOR ARPT  CLOUDY    66  55  66 NE7       29.81R
6HR MIN TEMP:  66; 6HR MAX TEMP:  77;

ASHLAND        PTCLDY    67  54  63 SW6       29.84R
6HR MIN TEMP:  67; 6HR MAX TEMP:  76;

HAYWARD        CLEAR     71  52  50 SW8       29.86S
6HR MIN TEMP:  71; 6HR MAX TEMP:  74;

SIREN          CLEAR     71  53  51 SW6       29.85F
6HR MIN TEMP:  71; 6HR MAX TEMP:  76;

RICE LAKE      CLEAR     70  53  54 CALM      29.88F
6HR MIN TEMP:  71; 6HR MAX TEMP:  75;

LADYSMITH      CLEAR     70  54  56 SW5       29.89F
6HR MIN TEMP:  70; 6HR MAX TEMP:  75;

EAU CLAIRE     CLEAR     73  54  51 W5        29.87F
6HR MIN TEMP:  73; 6HR MAX TEMP:  78;

MENOMONIE      CLEAR     74  54  48 SW6       29.88F
6HR MIN TEMP:  74; 6HR MAX TEMP:  79;

NEW RICHMOND   CLEAR     70  53  53 W5        29.88S
6HR MIN TEMP:  70; 6HR MAX TEMP:  76;

OSCEOLA        CLEAR     72  53  51 SW6       29.89F
6HR MIN TEMP:  72; 6HR MAX TEMP:  76;

$$

WIZ003>005-009-010-017-018-030100-
NORTH CENTRAL WISCONSIN

CITY           SKY/WX    TMP DP  RH WIND       PRES   REMARKS
WOODRUFF       CLEAR     69  51  51 SW5       29.88S
6HR MIN TEMP:  69; 6HR MAX TEMP:  74;

RHINELANDER    CLEAR     67  54  63 SW6       29.89S
6HR MIN TEMP:  67; 6HR MAX TEMP:  75;

EAGLE RIVER    CLEAR     65  49  56 SW5       29.87S
6HR MIN TEMP:  65; 6HR MAX TEMP:  73;

LAND O LAKES   CLEAR     67  50  54 SW3       29.87S
6HR MIN TEMP:  67; 6HR MAX TEMP:  73;

PHILLIPS       CLEAR     68  54  60 SW7       29.87S
6HR MIN TEMP:  68; 6HR MAX TEMP:  73;

TOMAHAWK       CLEAR     67  53  60 CALM      29.89S
6HR MIN TEMP:  67; 6HR MAX TEMP:  74;

MEDFORD        CLEAR     67  54  62 W5        29.89F
6HR MIN TEMP:  67; 6HR MAX TEMP:  73;

MERRILL        CLEAR     69  55  61 W5        29.88S
6HR MIN TEMP:  69; 6HR MAX TEMP:  75;

$$

WIZ029-030-035-036-043>047-030100-
CENTRAL WISCONSIN

CITY           SKY/WX    TMP DP  RH WIND       PRES   REMARKS
WAUSAU         CLEAR     71  55  56 W6        29.87S
6HR MIN TEMP:  71; 6HR MAX TEMP:  76;

MOSINEE        PTCLDY    70  57  64 W6        29.90S
MARSHFIELD     CLEAR     70  57  63 W6        29.89S
6HR MIN TEMP:  70; 6HR MAX TEMP:  77;

STEVENS POINT  PTCLDY    69  58  67 W5        29.89S
6HR MIN TEMP:  62; 6HR MAX TEMP:  74; 6HR PCP:  0.14;

WAUPACA        CLEAR     74  58  57 W3        29.88S
6HR MIN TEMP:  73; 6HR MAX TEMP:  80;

WAUTOMA        CLEAR     74  58  57 W6        29.89S
6HR MIN TEMP:  74; 6HR MAX TEMP:  80; 6HR PCP: TRACE;

WISC RAPIDS    CLEAR     72  56  57 W6        29.90S
6HR MIN TEMP:  72; 6HR MAX TEMP:  78;

CAMP DOUGLAS   PTCLDY    72  64  78 W7        29.89F
$$

WIZ011>013-019>022-031-037>040-048>050-030100-
NORTHEAST WISCONSIN

CITY           SKY/WX    TMP DP  RH WIND       PRES   REMARKS
ANTIGO         CLEAR     67  55  64 W7        29.89F
6HR MIN TEMP:  67; 6HR MAX TEMP:  73;

STURGEON BAY   PTCLDY    70  59  68 SW3       29.86F
6HR MIN TEMP:  64; 6HR MAX TEMP:  73;

GREEN BAY      CLEAR     71  61  70 W6        29.86F
6HR MIN TEMP:  70; 6HR MAX TEMP:  77;

MANITOWOC      CLEAR     74  59  59 W5        29.87F
6HR MIN TEMP:  74; 6HR MAX TEMP:  78;

APPLETON       PTCLDY    72  55  56 W7        29.88F
CLINTONVILLE   CLEAR     72  55  56 CALM      29.87S
OSHKOSH        CLEAR     73  59  61 CALM      29.87F
6HR MIN TEMP:  73; 6HR MAX TEMP:  77; 6HR PCP: TRACE;

$$

WIZ032>034-041-042-053>061-030100-
SOUTHWEST WISCONSIN

CITY           SKY/WX    TMP DP  RH WIND       PRES   REMARKS
LA CROSSE      CLEAR     77  59  53 W5        29.88S
6HR MIN TEMP:  77; 6HR MAX TEMP:  81;

SPARTA         CLEAR     74  58  57 CALM      29.90S
6HR MIN TEMP:  74; 6HR MAX TEMP:  78;

VIROQUA        FAIR      71  59  66 SW3       29.92S
6HR MIN TEMP:  71; 6HR MAX TEMP:  76;

BOSCOBEL       CLEAR     76  58  53 SW3       29.90F
6HR MIN TEMP:  76; 6HR MAX TEMP:  81;

PRAIRIE DU CHI CLEAR     75  56  51 W3        29.89S
6HR MIN TEMP:  75; 6HR MAX TEMP:  79;

PLATTEVILLE    FAIR      72  60  64 CALM      29.92S
6HR MIN TEMP:  72; 6HR MAX TEMP:  77;

$$

WIZ056-057-062-063-064-067-068-030100-
SOUTH CENTRAL WISCONSIN

CITY           SKY/WX    TMP DP  RH WIND       PRES   REMARKS
BARABOO/DELLS  CLEAR     74  54  49 W3        29.90S
6HR MIN TEMP:  74; 6HR MAX TEMP:  79;

LONE ROCK      CLEAR     78  58  49 NW5       29.90S
6HR MIN TEMP:  78; 6HR MAX TEMP:  82;

WATERTOWN      CLEAR     73  58  60 W3        29.89S
6HR MIN TEMP:  73; 6HR MAX TEMP:  77;

MADISON        PTCLDY    74  55  51 CALM      29.89F
6HR MIN TEMP:  74; 6HR MAX TEMP:  79;

MIDDLETON      FAIR      73  55  53 W3        29.90S
6HR MIN TEMP:  73; 6HR MAX TEMP:  78;

MONROE         CLEAR     72  59  64 W3        29.91S
JANESVILLE     CLEAR     75  55  50 NW6       29.89F
$$

WIZ051-052-058>065-066-070>072-030100-
SOUTHEAST WISCONSIN

CITY           SKY/WX    TMP DP  RH WIND       PRES   REMARKS
MILWAUKEE      PTCLDY    76  56  49 NW7       29.88F
6HR MIN TEMP:  76; 6HR MAX TEMP:  80;

WAUKESHA       CLEAR     72  57  60 W7        29.90F
MILWAUKEE/TIMM CLEAR     73  55  53 NW7       29.88F
RACINE         CLEAR     75  58  55 W5        29.90S
6HR MIN TEMP:  75; 6HR MAX TEMP:  81;

BURLINGTON     CLEAR     71  58  64 CALM      29.90R
6HR MIN TEMP:  71; 6HR MAX TEMP:  77;

KENOSHA        CLEAR     73  62  68 W5        29.89S
6HR MIN TEMP:  73; 6HR MAX TEMP:  80;

FOND DU LAC    CLEAR     73  57  57 W5        29.88F
6HR MIN TEMP:  73; 6HR MAX TEMP:  78;

SHEBOYGAN      CLEAR     72  59  63 W3        29.87F
6HR MIN TEMP:  69; 6HR MAX TEMP:  78; 6HR PCP:  0.06;

WEST BEND      CLEAR     72  54  53 W5        29.88F
JUNEAU         CLEAR     72  58  62 SW3       29.90S
6HR MIN TEMP:  72; 6HR MAX TEMP:  76;

$$

LSZ147-162-030100-
LAKE SUPERIOR

STATION/POSITION TIME  TEMP    WIND        PRES    WAVE
                       AIR SEA DIR/SP/G            HT/PER
                 (UTC) (F)     (DEG/KT/KT) (MB)    (FT/S)
W MID LAKE BUOY  2350   65 57  230/ 19/ 23 1007.9F   2/ 4
DEVILS ISLAND    0000   60     290/ 22/ 25 1011.1R
PORT WING        2320          330/ 27     1010.8R
SAXON HARBOR     2300   74     210/  4/  7 1009.8S
$$

LMZ867-665-643>646-030100-
LAKE MICHIGAN

STATION/POSITION TIME  TEMP    WIND        PRES    WAVE
                       AIR SEA DIR/SP/G            HT/PER
                 (UTC) (F)     (DEG/KT/KT) (MB)    (FT/S)
N MID LAKE BUOY  2350   67 65  220/ 12/ 14 1010.1R   2/ 3
NORTHPORT PIER   2300   75     230/  2/  8 1010.2S
SISTER BAY       2341   73     220/  9/ 10   N/A
KEWAUNEE LAKESHO 2300   75     270/  4/  7 1010.4R
SHEBOYGAN LAKESH 0000   69 48  180/ 10/ 11 1011.6F
ATWATER BUOY     0000   70     110/  4/  4 1012.9F
MILWAUKEE LAKESH 0000   70      60/  5/  6   N/A
S MID LAKE BUOY  2350   73 73  170/  6/  6 1011.9F   0
KENOSHA   LAKESH 0000   77     280/  6/  8 1011.5R
$$

TC  - TEMPERATURE IN CELSIUS
VSB - VISIBILITY IN STATUTE MILES
WCI - WIND CHILL INDEX
HX  - HEAT INDEX



USA.gov is the U.S. government's official web portal to all federal, state and local government web resources and services.